Theta_e
306 305 305 306 306 306 306 305 304 305 306 307 306 306 306 307 308 308 309 309 310 311 312 315 317 317 317 317 318 318 315 317 316 314 314 310 313 316 317 319 321 321 320 320 321
306 305 305 304 305 306 305 305 305 305 306 307 307 307 307 307 308 308 308 310 311 312 314 316 316 317 317 315 315 314 316 316 308 307 308 308 309 310 313 315 316 317 318 318 319
306 306 305 305 306 305 305 305 306 306 306 307 308 308 307 307 308 308 309 311 312 313 314 316 317 318 314 312 310 309 314 308 308 309 307 307 307 308 308 307 311 314 313 314 315
306 306 305 305 305 305 306 306 308 308 308 308 308 308 309 309 307 308 310 311 312 313 314 315 315 315 309 310 309 309 308 308 308 308 307 306 307 306 307 311 311 310 310 311 313
306 306 306 306 305 305 306 307 307 307 308 308 308 309 308 308 307 309 309 311 312 313 313 313 314 312 309 308 308 308 307 307 307 306 306 306 305 304 305 308 307 307 308 310 312
307 307 307 306 306 307 309 309 309 309 308 308 307 308 308 306 308 309 310 310 311 311 312 312 313 312 309 307 307 307 307 306 306 306 307 305 304 305 308 307 307 307 306 307 310
308 307 308 308 309 309 308 308 308 308 308 308 308 309 308 307 309 309 310 310 311 311 311 311 311 310 308 307 308 308 309 308 307 307 306 304 303 300 307 306 307 308 308 307 309
309 308 308 308 308 309 309 308 308 309 309 309 309 309 307 308 309 310 310 310 311 311 311 311 312 311 309 309 305 303 304 304 306 302 304 304 304 304 306 306 306 306 307 308 307
310 310 309 309 309 309 309 309 309 309 308 309 309 309 307 308 309 310 312 312 312 311 311 310 310 308 308 305 303 300 303 305 302 300 300 303 302 302 304 303 302 304 303 305 304
307 307 308 307 308 309 309 309 309 309 309 308 308 309 307 306 307 308 310 311 312 311 308 307 306 300 298 301 303 303 303 302 302 300 298 299 300 300 301 301 303 303 304 303 303
306 307 308 308 307 307 306 306 307 307 306 304 304 304 305 305 306 307 308 308 307 307 303 303 301 300 301 300 301 302 302 302 301 299 298 299 298 301 302 301 302 302 302 303 304
306 306 308 309 308 307 307 307 306 306 304 304 305 306 305 305 306 306 307 307 306 301 301 301 300 300 300 300 300 302 303 301 300 299 298 298 301 300 301 302 302 301 303 304 305
306 307 307 307 307 307 307 307 307 306 305 304 304 304 305 305 303 304 306 304 301 301 298 302 300 299 301 300 299 301 303 302 300 298 298 297 305 307 304 302 302 302 302 304 305
307 307 307 307 308 308 308 307 308 307 301 302 304 304 304 305 303 303 304 305 303 300 300 301 300 301 301 300 299 302 301 300 299 302 305 298 309 306 304 302 301 302 302 303 304
307 307 307 307 307 307 307 306 306 309 302 301 302 304 304 304 303 303 303 305 302 302 302 303 300 300 301 300 299 301 299 299 300 300 303 302 302 307 303 306 304 300 302 302 302
306 306 307 307 307 307 306 307 311 305 300 299 301 301 302 302 302 304 302 304 303 301 300 300 300 298 298 297 298 298 300 301 299 298 305 294 301 310 309 308 304 300 301 301 301
307 306 306 307 307 306 306 309 306 303 297 300 301 299 300 299 300 298 297 296 299 304 302 301 302 298 297 298 299 299 303 307 311 307 311 286 299 309 308 305 301 300 301 301 299
314 307 307 307 306 306 308 305 300 292 295 299 300 300 300 298 300 298 299 299 296 298 297 301 310 299 296 298 299 300 300 307 308 308 308 288 303 310 303 302 301 300 300 300 299
309 315 307 306 306 307 307 299 299 298 301 302 301 300 299 299 298 299 298 299 299 297 304 302 310 297 296 296 297 301 299 297 293 282 295 302 304 306 303 300 299 299 299 299 299
312 316 312 306 306 306 303 298 296 299 300 301 302 299 297 297 301 300 299 298 299 298 298 297 302 297 297 297 296 298 296 302 299 305 305 306 301 310 308 304 300 300 300 301 300
316 318 316 307 305 305 299 290 293 300 300 301 300 298 301 298 300 300 301 299 298 298 297 295 298 305 299 296 297 296 296 296 298 301 303 300 309 302 303 299 299 298 303 305 303
319 316 317 309 308 296 293 293 300 300 301 300 300 300 300 299 301 296 301 299 299 298 300 297 298 298 306 297 297 298 298 299 307 306 295 297 302 301 300 294 295 300 305 304 301
320 320 319 312 306 293 296 297 301 300 299 299 300 299 297 295 300 300 300 299 299 298 299 298 298 304 313 304 297 296 297 295 294 297 298 303 313 295 291 293 302 302 306 305 301
320 311 319 314 303 300 297 299 299 301 300 300 300 299 298 294 296 297 301 298 298 298 298 297 299 305 313 313 301 300 297 297 297 295 300 305 312 311 309 306 305 306 305 304 302
319 311 312 307 305 301 301 299 301 300 300 299 299 299 298 299 300 295 299 299 298 300 297 296 296 295 296 297 296 300 299 296 296 299 303 313 307 310 309 306 305 304 304 302 299
319 317 309 305 305 306 303 303 300 299 301 302 299 299 297 298 310 312 302 300 303 297 296 294 299 289 295 297 297 298 300 299 299 300 296 301 302 303 303 303 303 306 304 303 302
316 318 317 304 304 307 307 306 306 303 304 303 302 299 299 299 301 301 301 299 300 299 297 292 291 294 305 292 297 315 307 299 297 294 296 302 311 298 305 305 306 306 305 304 302
Wind_Speed
9 8 5 5 6 7 7 8 10 12 12 13 15 14 13 12 10 8 5 0 2 3 4 4 6 6 5 6 6 2 4 2 3 4 3 4 1 1 3 4 8 9 14 13 11
8 8 8 8 8 9 10 11 11 13 13 17 17 16 15 13 10 8 5 4 5 4 6 4 5 4 5 4 4 5 3 4 2 0 2 3 2 3 3 6 9 17 21 20 16
11 10 10 10 12 13 14 13 12 13 12 12 8 13 14 12 8 9 5 4 5 7 5 4 5 5 5 5 8 4 3 2 2 2 3 4 4 4 4 7 21 15 15 16 18
12 12 14 14 14 15 15 15 14 12 9 5 5 7 6 2 3 6 6 5 6 5 4 4 3 3 5 4 4 4 1 1 2 2 3 4 5 6 14 24 11 11 14 16 18
14 13 13 13 15 15 15 12 8 6 7 6 6 6 6 13 9 9 8 4 5 5 4 4 4 4 4 2 2 3 2 0 3 4 7 10 11 10 26 29 23 21 19 19 18
15 15 13 13 14 14 13 13 11 10 10 9 10 10 9 14 12 10 10 7 5 5 6 4 6 9 8 2 3 2 1 3 3 4 7 5 6 3 9 6 7 16 23 21 20
14 16 16 17 16 15 13 12 16 18 21 19 20 24 26 13 13 11 9 11 11 9 10 9 5 2 4 3 3 1 3 4 1 5 4 9 7 9 20 15 12 14 17 17 18
12 14 15 13 12 11 11 12 14 15 13 15 14 13 11 13 14 8 11 12 11 11 13 14 11 10 5 6 4 5 4 5 2 10 3 6 10 3 2 5 14 18 17 18 18
10 10 11 11 11 12 13 11 9 10 11 10 8 8 6 8 10 10 8 8 9 9 9 7 4 6 4 3 5 8 2 3 8 6 5 1 11 8 7 21 33 29 25 26 26
12 15 16 15 14 12 10 10 9 5 4 7 7 9 8 8 9 9 5 4 3 2 2 4 7 5 5 6 2 4 4 5 5 5 4 8 22 16 26 23 21 18 16 17 17
7 6 4 2 5 8 12 4 4 13 31 15 11 8 9 5 16 12 5 3 4 8 6 8 8 3 2 2 1 2 2 5 5 2 7 3 14 22 19 8 7 6 9 9 11
7 6 6 5 8 5 1 1 6 12 16 18 17 12 17 10 4 18 10 4 7 4 7 7 3 2 2 1 1 2 2 6 7 2 1 7 21 8 4 3 3 5 5 5 2
8 12 14 15 13 12 15 18 12 8 7 9 16 13 10 10 11 19 14 6 7 6 7 5 1 4 1 3 6 2 1 3 6 9 2 8 9 4 2 3 4 3 2 2 1
7 9 8 9 8 11 7 5 3 2 6 12 11 11 13 3 7 16 12 5 7 3 2 5 3 1 3 3 1 4 2 2 6 5 3 6 4 7 5 7 4 6 6 4 3
4 7 7 6 2 4 2 1 1 1 6 8 8 9 10 8 3 15 14 6 4 3 2 1 4 4 1 2 2 5 1 2 1 1 3 6 3 8 4 7 7 10 11 8 6
6 3 6 8 8 4 3 3 2 7 2 6 6 9 5 11 7 10 8 9 5 3 5 3 2 1 2 3 2 3 0 1 3 2 3 4 3 7 4 5 4 4 12 11 10
14 6 2 4 5 6 6 3 6 6 4 6 4 7 1 7 7 10 6 8 5 4 7 6 2 2 3 3 2 4 5 4 6 5 5 1 2 11 6 5 4 6 9 15 14
17 15 7 4 7 7 6 6 8 3 5 1 2 2 4 6 4 8 3 4 6 4 3 3 6 1 3 2 1 3 3 4 4 3 6 2 6 6 5 6 10 10 12 14 16
2 19 13 6 4 5 3 6 7 6 1 1 2 5 5 4 2 5 5 2 2 2 3 3 5 1 2 3 3 3 4 1 6 2 3 3 8 11 4 7 9 13 13 15 17
2 3 24 8 5 5 6 3 2 1 1 1 2 2 2 6 4 5 4 2 2 1 1 1 4 0 1 2 4 3 2 4 3 3 5 6 7 6 8 7 7 7 14 18 19
5 3 21 5 5 6 4 5 3 2 2 1 2 2 1 2 1 1 1 2 1 1 1 3 3 4 2 2 5 3 2 3 3 3 4 3 8 8 9 6 8 10 13 19 21
6 4 18 6 5 6 3 5 3 3 2 1 1 2 0 2 0 1 2 1 2 2 1 0 3 4 7 3 2 1 4 4 4 6 3 3 10 6 10 6 7 17 26 25 20
4 5 14 4 4 2 0 1 1 3 3 3 3 1 2 3 2 1 2 1 1 1 2 3 1 4 8 2 2 2 4 4 3 2 6 3 8 1 6 9 15 23 30 30 21
3 3 8 12 9 7 4 1 1 1 2 1 2 2 3 2 0 3 2 2 3 2 1 2 2 6 6 8 2 3 5 5 5 3 4 13 25 29 23 14 18 23 31 32 21
5 3 2 2 5 5 3 6 3 2 1 3 1 4 5 1 1 2 3 3 1 3 1 3 4 2 7 13 5 12 10 9 11 11 8 25 11 29 26 21 27 31 28 22 16
3 2 4 4 2 2 1 6 8 3 6 3 3 3 5 5 6 6 5 4 5 3 5 1 3 1 6 5 6 9 16 14 16 16 13 26 31 26 41 31 19 22 20 18 18
3 3 1 0 2 3 4 5 6 7 6 3 7 5 4 7 9 6 5 2 4 7 6 3 3 3 7 7 12 10 7 9 5 6 7 7 17 2 14 7 14 24 25 25 20
Wind_Direction
46 54 68 96 114 116 118 121 126 127 127 118 119 120 127 130 131 131 120 104 128 110 137 135 138 124 103 78 68 73 67 151 223 154 294 10 69 277 237 248 232 231 243 262 264
56 60 69 90 108 113 118 121 124 129 132 126 116 113 122 126 133 111 69 81 122 126 115 151 133 107 69 42 36 65 97 193 69 311 282 291 254 255 258 234 252 252 253 256 256
60 67 81 95 106 113 116 116 120 126 132 137 112 118 120 121 103 30 58 105 120 108 107 126 113 75 69 29 20 19 111 108 198 195 258 269 280 239 229 262 244 241 272 257 249
69 76 85 92 104 112 113 115 116 119 123 127 113 121 109 79 83 35 69 100 108 110 105 116 90 61 58 52 24 83 99 176 208 243 262 247 279 263 230 249 264 275 270 260 250
77 76 80 90 101 109 112 113 112 112 119 105 103 103 106 87 52 66 70 92 111 104 96 99 78 89 90 93 68 75 198 47 231 263 275 283 266 265 267 268 269 267 264 262 261
83 80 82 93 104 106 104 102 99 101 102 95 101 101 99 74 54 63 65 76 98 86 68 80 99 109 96 62 66 74 135 246 260 314 305 300 281 328 278 317 288 262 259 260 263
86 92 91 94 104 104 101 94 103 95 101 92 98 91 81 70 62 69 82 84 88 93 106 100 107 112 114 90 86 104 333 338 19 349 318 323 282 232 273 281 277 284 274 261 264
91 103 100 93 95 96 94 99 103 98 90 81 88 87 76 62 63 88 85 89 91 92 91 90 87 82 58 114 28 42 49 10 32 1 360 26 277 296 288 302 302 302 282 263 268
89 106 107 104 99 96 97 94 91 91 80 76 79 90 60 61 61 66 83 86 89 83 73 72 86 77 50 50 14 17 304 329 320 41 316 135 278 272 280 310 303 296 275 265 274
97 101 106 85 88 110 107 92 81 90 71 69 55 76 49 21 38 37 64 73 87 44 51 47 50 65 30 43 227 311 336 317 259 334 354 264 264 279 286 291 288 299 294 278 263
123 137 134 82 122 131 118 102 100 68 68 70 64 74 35 50 47 29 39 42 42 58 37 23 63 57 9 10 246 278 271 274 265 1 326 255 288 291 298 246 258 313 341 310 268
96 102 99 114 153 174 197 27 107 118 75 60 62 59 39 33 34 33 39 53 46 53 343 25 73 311 280 325 284 192 292 296 283 265 333 326 294 278 271 248 269 317 342 360 5
100 112 106 84 93 115 118 110 112 112 79 33 34 31 22 31 40 9 23 40 69 53 17 102 89 315 309 31 17 330 279 323 258 318 249 316 297 335 255 266 258 293 303 341 255
126 144 127 101 114 121 111 95 86 66 73 331 355 20 360 46 44 17 20 47 39 140 81 86 313 27 33 53 105 300 155 258 283 8 281 16 278 310 321 300 246 243 243 238 220
159 194 205 206 158 204 198 74 62 85 55 318 336 351 15 69 338 10 24 53 73 71 77 309 11 19 21 265 174 261 292 249 258 105 5 357 63 269 357 299 268 234 234 232 235
36 199 209 220 229 231 184 133 79 43 275 340 336 350 16 21 18 345 31 60 68 81 34 67 39 43 260 288 230 307 226 98 69 101 22 273 84 281 249 224 292 264 238 237 239
47 52 172 179 166 155 145 109 40 101 352 312 333 10 33 355 357 25 36 17 48 49 8 353 3 314 23 326 215 24 39 344 357 7 234 269 11 247 264 258 243 274 272 245 244
44 44 73 115 138 144 141 54 70 248 237 30 306 313 65 351 25 359 64 45 44 52 90 80 321 23 9 43 281 19 109 142 250 277 281 32 234 251 224 269 272 267 267 243 236
68 36 55 78 136 163 160 55 185 196 74 325 316 61 342 13 46 46 39 53 260 9 112 32 275 122 34 26 47 345 40 136 97 75 22 272 288 294 281 291 272 266 265 256 249
76 40 23 49 98 143 74 155 142 185 35 19 95 71 30 318 19 47 354 245 291 11 114 150 327 240 32 93 41 100 163 32 15 338 296 295 279 240 301 296 321 308 283 284 268
37 77 8 32 71 64 102 201 213 191 161 102 148 106 166 217 7 9 221 183 253 1 93 132 103 297 42 189 174 33 17 35 127 141 216 299 269 217 242 241 275 293 315 320 294
40 44 360 36 38 51 89 184 138 168 155 167 68 96 236 180 168 26 333 157 171 153 52 50 136 279 241 98 78 127 189 169 124 272 223 158 262 215 234 247 246 295 304 312 301
51 40 15 72 90 25 327 71 168 153 179 177 144 79 102 138 63 247 231 224 214 155 161 172 321 341 343 62 17 187 202 147 127 81 214 179 261 298 253 287 296 285 313 323 308
42 31 37 55 74 118 134 289 69 159 150 135 111 126 144 64 8 224 229 185 194 191 150 149 193 175 208 232 150 211 206 208 155 158 206 236 281 282 287 297 300 311 312 316 309
45 84 74 332 20 92 115 159 134 207 195 193 354 219 163 123 316 260 226 173 151 166 141 137 228 212 259 264 252 265 242 219 203 219 219 273 258 280 291 298 295 303 315 314 307
58 125 102 105 122 152 98 210 170 237 152 222 202 169 177 181 200 223 178 214 205 205 171 75 277 80 282 287 262 269 248 232 234 252 257 262 279 265 269 278 291 304 314 309 307
93 114 97 63 104 95 223 177 209 165 204 202 186 137 202 236 248 262 225 183 180 160 173 141 123 44 270 337 319 292 236 170 213 211 173 221 260 325 296 275 300 311 308 306 303